Content
SEND FEEDBACK

Daily
Averages
Monthly
Summary
United States of America

SNYDER, TEXAS


Home > North America > United States > Texas
Elevation: 2427 feet     Latitude: 32 41N     Longitude: 100 57W

WEATHER
 
SELECT A DAY
Number of Records: 274,175;   Date Range: 7/8/03 - 10/20/14
 
SHARE

PRINT THIS DATA

[ ← Previous Day ]
WEATHER ALMANAC - FEBRUARY 13, 2013
[ Next Day → ]
[ °C ]   °F
Weather ElementAverageHighLow
Temperature41.4 °F57.2 °F (4:55 pm)25.7 °F (7:15 am)
Dewpoint24.9 °F35.4 °F (11:55 am)15.1 °F (11:15 pm)
Humidity60.3 %96 % (8:55 am)22 % (5:35 pm)
Barometer30.07 in30.15 in (9:15 am)29.98 in (5:55 pm)
Wind Speed8.2 mph16.1 mph (1:15 pm)
Wind Gust21.9 mph (3:35 pm)
Weather ElementAverage
Visibility9.6 mi
Wind DirectionSSW (208.3 °)

Weather ElementTotal
Precipitation---
Heating Degree Days23.6 (Base 65)
Averaged from 71 records on February 13, 2013
WEATHER CONDITIONS BREAKOUT
WIND DIRECTION BREAKOUT
WEATHER BY HOUR - FEBRUARY 13, 2013
[ °C ]   °F
Local TimeTemperatureDewpointHumidityBarometerVisibilityWind DirectionWind SpeedGust SpeedPrecipitationEventsConditions
12:35 AM32.0 °F29.5 °F90 %30.12 in10.0 miNW (310°)5.8 mphClear
12:55 AM32.0 °F29.5 °F90 %30.11 in10.0 miWNW (290°)6.9 mphClear
1:15 AM32.0 °F29.7 °F91 %30.11 in10.0 miNW (320°)4.6 mphClear
1:35 AM32.0 °F29.8 °F92 %30.11 in10.0 miNW (310°)6.9 mphClear
1:55 AM32.0 °F29.5 °F90 %30.12 in10.0 miENE (60°)5.8 mphClear
2:15 AM30.6 °F28.4 °F92 %30.12 in10.0 miCalmClear
2:35 AM29.8 °F28.0 °F93 %30.11 in10.0 miCalmClear
2:55 AM30.2 °F28.4 °F93 %30.12 in10.0 miSW (220°)8.1 mphClear
3:15 AM29.3 °F27.9 °F94 %30.12 in10.0 miSSW (210°)6.9 mphClear
3:35 AM29.3 °F28.0 °F95 %30.12 in10.0 miSW (230°)6.9 mphClear
3:55 AM29.3 °F28.0 °F95 %30.11 in10.0 miSW (230°)4.6 mphClear
4:15 AM29.3 °F28.0 °F95 %30.10 in10.0 miWSW (250°)4.6 mphClear
4:35 AM29.3 °F28.0 °F95 %30.10 in10.0 miWest (260°)5.8 mphClear
4:55 AM29.5 °F27.9 °F94 %30.10 in10.0 miWest (270°)6.9 mphClear
5:15 AM30.2 °F28.0 °F92 %30.10 in10.0 miWest (280°)6.9 mphClear
5:35 AM30.7 °F28.2 °F90 %30.10 in10.0 miSW (230°)4.6 mphClear
5:55 AM29.3 °F26.8 °F90 %30.10 in10.0 miSouth (190°)5.8 mphClear
6:15 AM27.1 °F25.3 °F93 %30.10 in10.0 miSouth (190°)6.9 mphClear
6:35 AM27.0 °F25.5 °F94 %30.10 in7.0 miSSW (200°)5.8 mphClear
6:55 AM26.6 °F25.2 °F94 %30.11 in7.0 miWSW (240°)4.6 mphClear
7:15 AM25.7 °F24.3 °F94 %30.11 in7.0 miWSW (250°)3.5 mphClear
7:35 AM27.0 °F25.5 °F94 %30.11 in10.0 miSSW (210°)3.5 mphClear
7:55 AM27.0 °F25.3 °F94 %30.12 in7.0 miSSE (160°)6.9 mphClear
8:15 AM27.0 °F25.5 °F94 %30.12 in7.0 miSSW (200°)8.1 mphClear
8:35 AM28.0 °F26.6 °F94 %30.13 in5.0 miSSW (200°)9.2 mphClear
8:55 AM29.3 °F28.2 °F96 %30.14 in5.0 miSSW (210°)9.2 mphClear
9:15 AM29.8 °F28.6 °F95 %30.15 in7.0 miSSW (200°)10.4 mphClear
9:35 AM31.6 °F30.0 °F94 %30.15 in10.0 miSW (220°)9.2 mphClear
9:55 AM33.8 °F31.5 °F91 %30.15 in10.0 miSW (230°)8.1 mphClear
10:15 AM36.7 °F32.7 °F86 %30.15 in10.0 miSW (230°)9.2 mphClear
10:35 AM39.4 °F33.8 °F80 %30.15 in10.0 miSW (220°)12.7 mphClear
10:55 AM41.0 °F33.8 °F76 %30.15 in10.0 miSW (230°)10.4 mphClear
11:15 AM42.4 °F33.8 °F71 %30.15 in10.0 miSW (230°)10.4 mphClear
11:35 AM44.4 °F34.3 °F68 %30.14 in10.0 miSW (230°)9.2 mphClear
11:55 AM47.3 °F35.4 °F63 %30.13 in10.0 miSW (230°)9.2 mphClear
12:15 PM49.3 °F33.3 °F54 %30.12 in10.0 miWSW (250°)8.1 mphClear
12:35 PM49.6 °F29.3 °F46 %30.11 in10.0 miWSW (240°)11.5 mph19.6 mphClear
12:55 PM50.5 °F27.3 °F41 %30.10 in10.0 miWSW (240°)12.7 mph19.6 mphClear
1:15 PM51.8 °F28.6 °F41 %30.08 in10.0 miWSW (240°)16.1 mphClear
1:35 PM52.9 °F28.2 °F39 %30.06 in10.0 miSW (230°)13.8 mph18.4 mphClear
1:55 PM54.5 °F26.4 °F34 %30.05 in10.0 miSW (220°)16.1 mph19.6 mphClear
2:15 PM54.5 °F24.6 °F31 %30.04 in10.0 miSW (220°)15.0 mph18.4 mphClear
2:35 PM54.9 °F22.6 °F29 %30.03 in10.0 miSW (220°)13.8 mph18.4 mphClear
2:55 PM56.3 °F22.1 °F27 %30.02 in10.0 miWSW (240°)11.5 mph19.6 mphClear
3:15 PM56.7 °F20.8 °F25 %30.01 in10.0 miWSW (240°)11.5 mphClear
3:35 PM56.8 °F21.4 °F25 %30.01 in10.0 miSW (220°)16.1 mph21.9 mphClear
3:55 PM56.8 °F20.1 °F24 %30.00 in10.0 miSW (230°)11.5 mphClear
4:15 PM56.8 °F20.1 °F24 %30.00 in10.0 miSW (220°)12.7 mphClear
4:35 PM56.8 °F19.9 °F24 %29.99 in10.0 miSW (220°)13.8 mph17.3 mphClear
4:55 PM57.2 °F19.4 °F23 %29.99 in10.0 miSSW (210°)12.7 mphClear
5:15 PM57.2 °F19.4 °F23 %29.99 in10.0 miSW (230°)8.1 mphClear
5:35 PM56.8 °F18.5 °F22 %29.99 in10.0 miWSW (240°)10.4 mphClear
5:55 PM56.8 °F18.9 °F23 %29.98 in10.0 miSW (220°)9.2 mphClear
6:15 PM56.1 °F20.3 °F25 %29.99 in10.0 miSSW (210°)4.6 mphClear
6:35 PM54.5 °F20.8 °F27 %29.99 in10.0 miSSW (200°)5.8 mphClear
6:55 PM52.3 °F21.6 °F30 %29.99 in10.0 miSouth (170°)4.6 mphClear
7:15 PM51.1 °F21.9 °F32 %29.99 in10.0 miSouth (170°)6.9 mphClear
7:35 PM49.5 °F20.7 °F32 %30.00 in10.0 miSouth (170°)5.8 mphClear
7:55 PM49.3 °F20.1 °F32 %30.00 in10.0 miSouth (170°)6.9 mphClear
8:15 PM49.3 °F21.2 °F33 %30.01 in10.0 miSouth (180°)5.8 mphClear
8:35 PM48.2 °F20.5 °F33 %30.02 in10.0 miSouth (180°)6.9 mphClear
8:55 PM46.8 °F19.2 °F33 %30.01 in10.0 miSouth (180°)8.1 mphClear
9:15 PM45.7 °F19.0 °F35 %30.02 in10.0 miSouth (180°)6.9 mphClear
9:35 PM44.1 °F18.0 °F35 %30.02 in10.0 miSouth (170°)6.9 mphClear
9:55 PM44.2 °F17.2 °F34 %30.02 in10.0 miSouth (170°)6.9 mphClear
10:15 PM43.5 °F16.9 °F34 %30.02 in10.0 miSouth (170°)8.1 mphClear
10:35 PM43.0 °F16.7 °F35 %30.02 in10.0 miSSE (160°)8.1 mphClear
10:55 PM43.0 °F16.0 °F34 %30.02 in10.0 miSSE (160°)8.1 mphClear
11:15 PM43.0 °F15.1 °F32 %30.02 in10.0 miSSE (160°)6.9 mphClear
11:35 PM42.3 °F15.6 °F34 %30.02 in10.0 miSSE (160°)8.1 mphClear
11:55 PM41.9 °F16.3 °F36 %30.02 in10.0 miSSE (160°)6.9 mphClear
Hourly data recorded from KSNK, located miles away from Snyder, Texas







STORIES FROM OUR PARTNERS